C/2010 A3 (Hill)
T 2010 Mar. 27.39822 TT                                 Nakano
q   1.6919973            (2000.0)            P               Q
                   Peri.   37.49120     -0.16825521     -0.95684692
                   Node    63.32858     +0.82800979     -0.26760667
e   1.0            Incl.   15.37518     +0.53487378     +0.11327244
From 43 observations 2010 Jan. 8-11.
Residuals in seconds of arc 
2010/                     100108 114  0.4-  0.2-    100109 H06  0.4+  0.5+  
100108 703  0.6+  0.7-    100108 114  0.4-  0.3-    100109 H01  0.4-  0.3+  
100108 703  0.0   0.3+    100108 114  0.1+  0.2-    100109 H01  0.5-  0.4+  
100108 703  0.7-  0.5-    100108 114  0.1+  0.0     100109 H06  0.0   0.6+  
100108 703  0.8+  0.4-    100108 114  0.1+  0.1-    100109 H01  0.6-  0.2+  
100108 673  0.8-  0.3-    100108 J41  0.4-  0.1-    100109 H01  0.7-  0.3+  
100108 673  0.4-  0.3-    100108 J41  0.9-  0.3+    100109 H06  0.0   0.2+  
100108 G96  0.3+  0.5-    100108 J41  0.2-  0.6-    100109 349  0.0   0.1-  
100108 G96  1.8+  0.2-    100108 J41  0.7-  0.1+    100109 349  0.4-  0.5+  
100108 673  0.4-  0.2-    100108 J41  0.4-  0.3-    100110 D92  0.2-  0.4+  
100108 G96  1.2+  0.3-    100109 I20  0.5-  0.3+    100110 D92  0.6+  0.1-  
100108 G96  0.5+  0.5-    100109 I20  0.3+  0.3+    100111 H06  0.6+  0.2-  
100108 673  0.2-  0.6+    100109 I20  0.8+  0.5+    100111 H06  0.2+  0.6-  
100108 854  1.4+  0.1+    100109 H06  0.4+  0.6+    100111 H06  0.1-  0.9-  
100108 854  1.5-  0.8+    100109 H06  0.4+  0.5+                            
NAKANO
         **** Don't distribute anyone except personal use only ****
           (C) Copyright 2010 Orbit.Astro.Assoc./ComputingSection
write mail from CFAD0::NAKANO on 2010-01-16 07:44:35(JST).

–ß‚è‚Ü‚·B